Regional Weather Roundup
Issued by NWS

Home | Current Version | Previous Version | Graphics & Text | Print | Product List | Glossary On
Versions: 1 2 3 4 5 6 7 8 9 10 11 12 13 14 15 16 17 18 19 20 21 22 23 24 25 26 27
000
ASUS45 KBOU 101710
RWRCO

WEATHER ROUNDUP FOR COLORADO
NATIONAL WEATHER SERVICE DENVER/BOULDER CO
1000 AM MST SUN DEC 10 2017

NOTE: "FAIR" INDICATES FEW OR NO CLOUDS BELOW 12000 FEET WITH NO
SIGNIFICANT WEATHER AND/OR OBSTRUCTIONS TO VISIBILITY.

COZ001>005-013-030-031-101800-
...NORTHWEST COLORADO...

CITY           SKY/WX    TMP DP  RH WIND       PRES   REMARKS
CRAIG          FAIR      17  11  77 W3        30.61R
HAYDEN         FAIR      22  10  60 E12       30.61R WCI  10
MEEKER         FAIR      31   6  35 VRB3      30.59S
RABBIT EARS PA FAIR      28   3  34 W7        30.59R WCI  21
STEAMBOAT SPGS FAIR      17  11  75 CALM      30.61R
WALDEN         FAIR      18   5  57 CALM      30.58S
$$

COZ006>008-011-101800-
...WEST CENTRAL VALLEYS...

CITY           SKY/WX    TMP DP  RH WIND       PRES   REMARKS
GRAND JUNCTION FAIR      33   6  32 S10       30.61S WCI  25
MONTROSE       FAIR      30   3  31 CALM      30.64S
EAGLE          FAIR      12   6  77 CALM      30.72
RIFLE          FAIR      27   9  46 CALM      30.64S
DELTA          FAIR      26   3  36 CALM      30.64S
NUCLA          FAIR      25  -6  26 SE3       30.63S
$$

COZ017>023-064>068-101800-
...SOUTHWEST COLORADO...

CITY           SKY/WX    TMP DP  RH WIND       PRES   REMARKS
DURANGO        FAIR      32   4  30 CALM      30.55R
CORTEZ         FAIR      30   0  27 CALM      30.57S
PAGOSA SPRINGS FAIR      39 -11  11 CALM      30.56S
TELLURIDE      FAIR      37 -17   9 SE3       30.60S
WOLF CREEK PAS FAIR      32 -33   5 CALM      30.69R
$$

COZ009-010-012-014-032>034-037-058>063-101800-
...CENTRAL COLORADO...

CITY           SKY/WX    TMP DP  RH WIND       PRES   REMARKS
ASPEN          FAIR      29   2  31 CALM      30.60R
BUENA VISTA    FAIR      35  -4  18 W5        30.54F WCI  31
COPPER MTN     NOT AVBL
BERTHOUD PASS  FAIR      18   7  62 NW12G22   30.60R WCI   5
COTTONWOOD PAS FAIR      41 -22   6 SE6       30.56R
GUNNISON       FAIR      15   2  56 CALM      30.68S
KREMMLING      FOG       12   9  85 CALM      30.71S VSB 1/2
LEADVILLE      FAIR      31 -14  13 NE6       30.57R WCI  25
MONARCH PASS   FAIR      27 -15  15 W9        30.72R WCI  17
SALIDA         FAIR      34  -2  21 NW8       30.62S WCI  27
SUNLIGHT       FAIR      28 -18  12 CALM      30.66R
WILKERSON PASS FAIR      32 -29   6 N7        30.59R WCI  26
$$

COZ069>075-101800-
...SAN LUIS VALLEY/SANGRE DE CRISTO MOUNTAINS...

CITY           SKY/WX    TMP DP  RH WIND       PRES   REMARKS
ALAMOSA        FAIR      29   1  30 N5        30.57S WCI  24
DEL NORTE      FAIR      33  -6  18 W9        30.58R WCI  25
LA VETA PASS   FAIR      32   0  25 SW16        N/A  WCI  21
SAGUACHE       FAIR      32  -4  21 E5        30.58S WCI  27
$$

COZ035-036-038>040-101800-
...NORTHERN COLORADO FRONT RANGE...

CITY           SKY/WX    TMP DP  RH WIND       PRES   REMARKS
DENVER INTL AP FAIR      50  -3  11 SW13      30.41R
DMNS CITY PARK NOT AVBL
AURORA         MOSUNNY   48  -4  11 SW12      30.42S
FRONT RANGE AP SUNNY     54   0  11 SW8       30.42R
ERIE MUNI ARPT FAIR      44   3  18 CALM      30.47S
BOULDER MUN AP FAIR      45   1  16 CALM      30.41S
CENTENNIAL     FAIR      45   6  20 E3        30.43R
BROOMFIELD     SUNNY     46   5  18 CALM      30.41S
FORT COLLINS   FAIR      42  13  30 CALM      30.42S
LONGMONT       FAIR      48   6  17 CALM      30.42S
$$

COZ041-046-047-076>085-087-088-101800-
...PIKES PEAK/PALMER DIVIDE AND SOUTHERN FOOTHILLS...

CITY           SKY/WX    TMP DP  RH WIND       PRES   REMARKS
COLO. SPRINGS  FAIR      51  -4  10 SW5       30.46R
A. F. ACADEMY  FAIR      49  -5  10 S5        30.45S
SCHRIEVER AFB  FAIR      51  -7   9 S7        30.46R
CHEYENNE MTN   FAIR      49  -5  10 SE10      30.41S
ELLICOTT         N/A    N/A N/A N/A CALM      30.44R
FALCON         FAIR      51  -8   8 SW6       30.47S
FORT CARSON    FAIR      50  -4  10 CALM      30.44R
LIMON          FAIR      51   0  12 CALM      30.43S
MONUMENT HILL  FAIR      48  -6  10 S7        30.47S
CANON CITY     FAIR      50   0  12 W14       30.44F
WALSENBURG     FAIR      55   1  11 NW8       30.45S
TRINIDAD       FAIR      49   4  16 W12       30.46S
$$

COZ042>045-048>051-090-091-101800-
...NORTHEAST COLORADO...

CITY           SKY/WX    TMP DP  RH WIND       PRES   REMARKS
GREELEY ARPT   FAIR      35  12  38 NW3       30.43R
AKRON          FAIR      45   1  16 W16       30.39S
BURLINGTON     FAIR      55   3  12 N16       30.39R
WRAY           FAIR      54   3  13 NW18      30.37R
YUMA           FAIR      48   3  15 W13       30.38S
STERLING       FAIR      41  12  30 S6        30.39R
HOLYOKE        FAIR      55   5  13 NW17G25   30.35R
FORT MORGAN    FAIR      40   4  22 W8        30.43R
$$

COZ086-089-092>099-101800-
...SOUTHEAST COLORADO...

CITY           SKY/WX    TMP DP  RH WIND       PRES   REMARKS
PUEBLO         FAIR      45   2  17 W7        30.45S
LA JUNTA       FAIR      42   5  21 W9        30.45S
LAMAR          FAIR      46   5  18 W10       30.43R
SPRINGFIELD      N/A     56   5  13 N14       30.42S
$$




USA.gov is the U.S. government's official web portal to all federal, state and local government web resources and services.